Russellville, AR

8:49 AM CST on December 15, 2017 (GMT -0600)
Russellville Regional

Weather History for KRUE - December, 2012

Change the Weather History Date:

Friday, December 14, 2012

  Actual Average (KHOT) Record (KHOT)
Temperature  
Mean Temperature 41 °F -  
Max Temperature 55 °F 54 °F 74 °F (1975)
Min Temperature 27 °F 33 °F 12 °F (1958)
Degree Days  
Heating Degree Days 24    
Moisture  
Dew Point 32 °F    
Average Humidity 69    
Maximum Humidity 92    
Minimum Humidity 38    
Precipitation  
Precipitation 0.06 in - - ()
Sea Level Pressure  
Sea Level Pressure 30.12 in    
Wind  
Wind Speed 1 mph (ESE)    
Max Wind Speed 6 mph    
Max Gust Speed -    
Visibility 10 miles    
Events Rain    
Averages and records for this station are not official NWS values.
T = Trace of Precipitation, MM = Missing Value Source: NWS Daily Summary

Daily Weather History Graph

Daily Weather History Graph

Search for Another Location

Airport or City:

Trip Planner

Search our weather history database for the weather conditions in past years. The results will help you decide how hot, cold, wet, or windy it might be!

Date:

Astronomy

Dec. 14, 2012 Rise Set
Actual Time 7:13 AM CST 5:01 PM CST
Civil Twilight 6:45 AM CST 5:29 PM CST
Nautical Twilight 6:13 AM CST 6:01 PM CST
Astronomical Twilight 5:42 AM CST 6:32 PM CST
Moon 8:20 AM CST (12/14) 6:52 PM CST (12/14)
Length of Visible Light 10h 44m
Length of Day
9h 47m
Waxing Crescent, 3% of the Moon is Illuminated
Dec 14
Waxing Crescent
Dec 19
First Quarter
Dec 28
Full
Jan 4
Last Quarter
Jan 11
New

Hourly Weather History & Observations

Time (CST) Temp. Dew Point Humidity Pressure Visibility Wind Dir Wind Speed Gust Speed Precip Events Conditions
12:53 AM 28.9 °F 24.1 °F 82% 30.25 in 10.0 mi Calm Calm - N/A   Clear
1:53 AM 28.0 °F 24.1 °F 85% 30.23 in 10.0 mi Calm Calm - N/A   Clear
2:53 AM 28.0 °F 24.1 °F 85% 30.23 in 10.0 mi Calm Calm - N/A   Clear
3:53 AM 27.0 °F 24.1 °F 89% 30.22 in 10.0 mi Calm Calm - N/A   Clear
4:53 AM 27.0 °F 24.1 °F 89% 30.20 in 10.0 mi Calm Calm - N/A   Clear
5:53 AM 27.0 °F 24.1 °F 89% 30.22 in 10.0 mi Calm Calm - N/A   Clear
6:53 AM 27.0 °F 24.1 °F 89% 30.23 in 10.0 mi Calm Calm - N/A   Clear
7:53 AM 28.0 °F 26.1 °F 92% 30.22 in 10.0 mi Calm Calm - N/A   Clear
8:53 AM 37.9 °F 30.0 °F 73% 30.23 in 10.0 mi Calm Calm - N/A   Clear
9:53 AM 48.0 °F 34.0 °F 58% 30.22 in 10.0 mi Calm Calm - N/A   Clear
10:53 AM 52.0 °F 28.0 °F 40% 30.21 in 10.0 mi ESE 5.8 mph - N/A   Clear
11:53 AM 52.0 °F 30.9 °F 45% 30.21 in 10.0 mi Variable 4.6 mph - N/A   Clear
12:53 PM 54.0 °F 30.0 °F 40% 30.15 in 10.0 mi Calm Calm - N/A   Clear
1:53 PM 54.0 °F 30.9 °F 41% 30.11 in 10.0 mi ENE 5.8 mph - N/A   Mostly Cloudy
2:53 PM 55.0 °F 30.9 °F 40% 30.07 in 10.0 mi Variable 3.5 mph - N/A   Mostly Cloudy
3:53 PM 55.0 °F 30.9 °F 40% 30.05 in 10.0 mi SE 3.5 mph - N/A   Mostly Cloudy
4:53 PM 54.0 °F 32.0 °F 43% 30.02 in 10.0 mi East 3.5 mph - N/A   Mostly Cloudy
5:53 PM 55.0 °F 30.0 °F 38% 30.03 in 10.0 mi Calm Calm - N/A   Overcast
6:53 PM 50.0 °F 39.9 °F 68% 30.06 in 10.0 mi East 3.5 mph - 0.00 in Rain Light Rain
7:53 PM 48.0 °F 42.1 °F 80% 30.06 in 10.0 mi Calm Calm - 0.05 in Rain Light Rain
8:53 PM 48.9 °F 41.0 °F 74% 29.99 in 10.0 mi Variable 4.6 mph - 0.00 in   Overcast
9:53 PM 48.0 °F 43.0 °F 83% 29.99 in 10.0 mi Variable 3.5 mph - N/A   Overcast
10:42 PM 48.2 °F 44.6 °F 87% 29.99 in 10.0 mi Variable 5.8 mph - N/A   Overcast
10:53 PM 48.9 °F 44.1 °F 83% 29.97 in 10.0 mi Variable 3.5 mph - N/A   Overcast
11:53 PM 48.9 °F 45.0 °F 86% 29.93 in 7.0 mi ESE 4.6 mph - 0.01 in Rain Light Rain